FW6591 Weather Reports


time (UTC)temp
F
wind
direction
speed
knots
gust
knots
rain 1hr
in
rain 24hr
in
rain mn
in
humidity
%
barometer
mb
20260906070054 55 216 1.7 5.2 0.00 0.00 0.00 85 1033.1
20260906064548 54 215 1.7 3.5 0.00 0.00 0.00 87 1033.0
20260906063101 54 221 1.7 4.3 0.00 0.00 0.00 87 1033.0
20260906061556 54 213 2.6 4.3 0.00 0.00 0.00 87 1032.8
20260906060055 53 188 1.7 4.3 0.00 0.00 0.00 88 1032.7
20260906054558 53 192 2.6 6.1 0.00 0.00 0.00 89 1032.3
20260906053058 53 214 2.6 7.0 0.00 0.00 0.00 89 1032.3
20260906051555 53 210 1.7 3.5 0.00 0.00 0.00 89 1032.1
20260906050113 52 205 2.6 5.2 0.00 0.00 0.00 89 1032.1
20260906044553 52 206 1.7 4.3 0.00 0.00 0.00 90 1032.1
20260906043107 52 191 1.7 3.5 0.00 0.00 0.00 90 1032.0
20260906041552 52 205 1.7 7.0 0.00 0.00 0.00 90 1031.9
20260906040107 52 230 1.7 6.1 0.00 0.00 0.00 90 1031.7
20260906034559 52 198 1.7 4.3 0.00 0.00 0.00 90 1031.7
20260906033058 52 194 0.9 3.5 0.00 0.00 0.00 90 1031.6
20260906031555 52 194 2.6 5.2 0.00 0.00 0.00 88 1031.5
20260906030132 53 211 1.7 6.1 0.00 0.00 0.00 87 1031.2
20260906024557 53 207 1.7 3.5 0.00 0.00 0.00 87 1031.1
20260906023058 53 206 2.6 5.2 0.00 0.00 0.00 87 1030.8
20260906021610 53 205 1.7 5.2 0.00 0.00 0.00 86 1030.8
20260906020100 53 221 1.7 4.3 0.00 0.00 0.00 86 1030.9
20260906014552 53 219 2.6 6.1 0.00 0.00 0.00 86 1030.8
20260906013100 53 198 1.7 4.3 0.00 0.00 0.00 86 1030.8
20260906011605 53 238 1.7 5.2 0.00 0.00 0.00 87 1030.7
20260906010100 53 218 2.6 5.2 0.00 0.00 0.00 88 1030.8
20260906004556 53 186 2.6 5.2 0.00 0.00 0.00 89 1030.6
20260906003108 54 212 2.6 6.1 0.00 0.00 0.00 88 1030.6
20260906001547 54 194 3.5 6.1 0.00 0.00 0.00 88 1030.7
20260906000057 54 234 2.6 5.2 0.00 0.00 0.00 88 1030.6
20260905234603 54 196 1.7 4.3 0.00 0.00 0.00 89 1030.9
20260905233049 54 196 1.7 4.3 0.00 0.00 0.00 89 1030.7
20260905231557 54 195 1.7 4.3 0.00 0.00 0.00 89 1030.8
20260905230058 54 184 0.9 4.3 0.00 0.00 0.00 89 1030.8
20260905224548 54 190 2.6 5.2 0.00 0.00 0.00 88 1030.8
20260905223057 54 175 2.6 6.1 0.00 0.00 0.00 88 1030.7
20260905221550 54 194 3.5 6.1 0.00 0.00 0.00 88 1030.7
20260905220052 55 192 1.7 4.3 0.00 0.00 0.00 86 1030.8
20260905214606 55 207 1.7 5.2 0.00 0.00 0.00 86 1030.5
20260905213103 55 217 0.9 4.3 0.00 0.00 0.00 86 1030.5
20260905211554 55 232 2.6 6.1 0.00 0.00 0.00 87 1030.3
20260905210052 55 192 1.7 6.1 0.00 0.00 0.00 87 1030.5
20260905204545 55 202 2.6 6.1 0.00 0.00 0.00 86 1030.7
20260905203055 55 150 1.7 4.3 0.00 0.00 0.00 86 1030.8
20260905201550 55 201 1.7 4.3 0.00 0.00 0.00 86 1030.9
20260905200054 55 194 2.6 5.2 0.00 0.00 0.00 86 1031.0
20260905194559 55 228 1.7 7.8 0.00 0.00 0.00 85 1030.9
20260905193054 55 227 1.7 6.1 0.00 0.00 0.00 85 1030.8
20260905191556 55 225 2.6 6.1 0.00 0.00 0.00 85 1030.9
20260905190051 55 245 2.6 7.8 0.00 0.00 0.00 85 1030.7
20260905184603 55 213 4.3 9.6 0.00 0.00 0.00 84 1030.4
20260905183100 55 239 3.5 7.8 0.00 0.00 0.00 84 1030.3
20260905181552 56 229 2.6 7.8 0.00 0.00 0.00 83 1030.4
20260905180051 56 214 2.6 6.1 0.00 0.00 0.00 81 1030.3
20260905174550 56 193 1.7 3.5 0.00 0.00 0.00 80 1030.5
20260905173108 57 218 0.9 3.5 0.00 0.00 0.00 79 1030.0
20260905171553 57 223 1.7 4.3 0.00 0.00 0.00 77 1030.0
20260905170050 58 236 1.7 4.3 0.00 0.00 0.00 76 1029.9
20260905164548 58 217 0.9 3.5 0.00 0.00 0.00 75 1029.6
20260905163100 59 248 2.6 5.2 0.00 0.00 0.00 73 1029.6
20260905161551 59 222 2.6 5.2 0.00 0.00 0.00 73 1029.6
20260905160100 59 0 0.0 1.7 0.00 0.00 0.00 74 1029.4
20260905154557 60 0 0.0 1.7 0.00 0.00 0.00 71 1029.3
20260905153045 60 165 0.9 2.6 0.00 0.00 0.00 70 1029.2
20260905151552 61 0 0.0 1.7 0.00 0.00 0.00 68 1029.2
20260905150055 62 0 0.0 1.7 0.00 0.00 0.00 63 1029.0
20260905144553 62 222 0.0 2.6 0.00 0.00 0.00 64 1028.8
20260905143057 61 191 0.9 3.5 0.00 0.00 0.00 63 1028.9
20260905141609 61 0 0.9 4.3 0.00 0.00 0.00 63 1028.9
20260905140058 61 95 0.9 3.5 0.00 0.00 0.00 63 1028.8
20260905134607 61 202 1.7 5.2 0.00 0.00 0.00 64 1028.6
20260905133057 61 173 3.5 5.2 0.00 0.00 0.00 67 1028.8
20260905131556 62 244 0.9 4.3 0.00 0.00 0.00 63 1028.9
20260905130101 61 0 0.9 4.3 0.00 0.00 0.00 67 1029.0
20260905124555 59 40 0.0 1.7 0.00 0.00 0.00 72 1029.3
20260905123056 58 217 1.7 3.5 0.00 0.00 0.00 71 1029.5
20260905121545 57 213 0.9 3.5 0.00 0.00 0.00 73 1030.0
20260905120058 56 219 0.0 2.6 0.00 0.00 0.00 74 1030.0
20260905114626 56 203 1.7 6.1 0.00 0.00 0.00 75 1030.2
20260905113050 56 212 3.5 7.0 0.00 0.00 0.00 73 1030.5
20260905111553 56 200 0.9 3.5 0.00 0.00 0.00 76 1030.6
20260905110044 56 223 0.9 6.1 0.00 0.00 0.00 74 1030.8
20260905104553 55 227 0.9 3.5 0.00 0.00 0.00 75 1030.7
20260905103052 56 245 1.7 5.2 0.00 0.00 0.00 73 1031.0
20260905101557 54 157 3.5 7.0 0.00 0.00 0.00 77 1031.4
20260905100114 53 212 1.7 4.3 0.00 0.00 0.00 80 1031.6
20260905094610 52 242 2.6 6.1 0.00 0.00 0.00 81 1032.1
20260905093059 52 192 2.6 5.2 0.00 0.00 0.00 83 1032.3
20260905091612 51 82 0.9 3.5 0.00 0.00 0.00 82 1032.6
20260905090056 50 136 0.9 2.6 0.00 0.00 0.00 81 1032.6
20260905084553 50 182 0.9 2.6 0.00 0.00 0.00 82 1032.3
20260905083050 50 215 0.9 2.6 0.00 0.00 0.00 84 1032.9
20260905081556 50 106 1.7 4.3 0.00 0.00 0.00 82 1032.8
20260905080056 50 217 0.0 2.6 0.00 0.00 0.00 81 1032.8
20260905074600 50 222 0.0 1.7 0.00 0.02 0.00 83 1032.8
20260905073108 49 125 0.9 4.3 0.00 0.02 0.00 84 1032.6
20260905071558 49 171 1.7 3.5 0.00 0.02 0.00 86 1032.3